Погода в Новых Чукалах

Россия / Чувашская Республика     54°41′19″N   47°10′47″E
темп.,
°C
ветер,
м/с
пор.,
м/с
влажн.,
%
обл.,
%
осадки,
мм/ч
давл.,
гПа
погр.,
м
13 мая, чт
чт1300:00+15вюв310717 0.0 1024200
03:00+14вюв36701 0.0 1023103
06:00+15в4117198 0.0 1023241
09:00+20вюв61256100 0.0 1022631
12:00+20вюв5959100 0.0 1022670
15:00+24юв8175266 0.0 10192015
18:00+21ююв6145969 0.0 1019775
21:00+18ююв61672100 1.3 1019489
14 мая, пт
пт1400:00+15ююв278197 1.7 1020134
03:00+14ююв2383100 1.7 102042
06:00+16ю137879 0.0 1020119
09:00+21ю2467100 0.0 1021459
12:00+24ю3559100 0.0 1020961
15:00+25ю46443 0.0 10201626
18:00+23ю38615 0.0 1019291
21:00+19ююв226815 0.0 101921
15 мая, сб
сб1500:00+18ююв3368100 0.0 101946
03:00+16ююв366476 0.0 1018119
06:00+18ю3136081 0.0 1019291
09:00+23ю5124578 0.0 1018485
12:00+26ю6103788 0.0 10181036
15:00+27ю693944 0.0 10181453
18:00+23ю5134751 0.0 1017475
21:00+19ююв4145622 0.0 1016257
16 мая, вс
вс1600:00+17ююв313525 0.0 1016242
03:00+16ю38555 0.0 1016133
06:00+17ю31261100 0.0 1016327
09:00+22ююз585175 0.0 1016496
12:00+26ююз5841100 0.0 10161198
15:00+27юз593814 0.0 10152067
18:00+24зюз356022 0.0 1015147
21:00+18ююз227286 0.0 101513
17 мая, пн
пн1700:00+16зюз227677 0.0 101621
03:00+15ссз119260 0.0 101711
06:00+18св11755 0.0 101787
09:00+23в11575 0.0 1017585
12:00+26ююз234794 0.0 10171251
15:00+28ююз25425 0.0 10161511
18:00+25ссз34615 0.0 1017127
21:00+19всв37765 0.1 1018112